STARLINK-2514 (48331 NORAD) Tracking and Keplerian Element Data

This shows tracking and keplerian element data for the satellite.

Feedback or suggestion? Click here.




ElementValue
Catalog48331
NameSTARLINK-2514
Epoch Orbit190
Epoch Day170.58334491
Epoch Year2021
RAAN281.4195
Inclination53.0516
Eccentricity0.0001307
Argument of Perigee105.0958
Mean Anonmoly234.8921
Mean Motion15.06413115
Decay Rate0.00051711
L11 48331U 21036BH 21170.58334491 .00051711 00000-0 34639-2 0 9991
L22 48331 53.0516 281.4195 0001307 105.0958 234.8921 15.06413115 1906

Live tracking and technical data element details for STARLINK-2514 (NORAD 48331). STARLINK-2514 can be tracked NOW for your location showing map with azimuth and elevation plus other details from your city location.

Track the satellite on the map from your city or location and see movement details for azimuth, elevation, latitude, longitude, range, height, and movement on the map or in text.







IsCatalogInMostPopularTable: catalog: 48331, numindb: 26
Update: records affected: 1



GetName: 48331 STARLINK-2514

Hit Count: updated at: Mon, 21 Jun 2021 04:15:04 GMT